Device Time, G(x), G(y), G(z), G(calibrated), Air Fuel Ratio(Commanded)(:1),Air Fuel Ratio(Measured)(:1),Ambient air temp(°F),Engine Coolant Temperature(°F),Engine Load(Absolute)(%),Engine reference torque(Nm),Engine RPM(rpm),Horsepower (At the wheels)(hp),Intake Air Temperature(°F),Throttle Position(Manifold)(%),Timing Advance(°),Turbo Boost & Vacuum Gauge(psi)
25-Jan-2022 04:23:18.822,-0.75833082,7.62939405,5.73027515,-0.00528449,29.39955139,-,28.39999962,177.80000305,15.29411793,350,1704,-,44.59999847,13.33333397,-10.5,-11.02286816
25-Jan-2022 04:23:18.916,-0.70925176,7.44085884,6.74118376,0.04503816,29.39955139,-,28.39999962,177.80000305,15.29411793,350,1704,-,44.59999847,13.33333397,-10.5,-11.02286816
25-Jan-2022 04:23:19.017,-1.28682804,6.82557583,5.8092804,-0.05796725,29.39955139,-,28.39999962,177.80000305,15.29411793,350,1704,-,44.59999847,13.33333397,-10.5,-11.02286816
25-Jan-2022 04:23:19.118,-0.59194094,7.42948675,6.83634901,0.04994005,29.39955139,-,28.39999962,177.80000305,15.29411793,350,1704,-,44.59999847,13.33333397,-10.5,-11.02286816
25-Jan-2022 04:23:19.224,-0.28250363,7.91967869,6.01098347,0.03291529,29.39955139,-,28.39999962,177.80000305,15.29411793,350,1678.5,-,44.59999847,13.33333397,-10.5,-11.02286816
25-Jan-2022 04:23:19.317,-0.97679234,7.27446842,6.15582657,-0.00449967,29.39955139,-,28.39999962,177.80000305,15.29411793,350,1678.5,-,44.59999847,13.33333397,-10.5,-11.02286816
25-Jan-2022 04:23:19.417,-1.17849505,7.16613626,6.61429644,0.02032489,29.39955139,-,28.39999962,177.80000305,14.90196037,350,1678.5,-,44.59999847,13.33333397,-10.5,-11.02286816
25-Jan-2022 04:23:19.516,-0.5907439,7.89274502,5.03838062,-0.02458686,29.39955139,-,28.39999962,177.80000305,14.90196037,350,1678.5,-,44.59999847,13.33333397,-10.5,-11.16790581
25-Jan-2022 04:23:19.616,-0.6613698,7.54979038,7.21282053,0.08550209,29.39955139,-,28.39999962,177.80000305,14.90196037,350,1664.5,-,44.59999847,13.33333397,-10.5,-11.16790581
25-Jan-2022 04:23:19.715,-0.15920755,6.743577,6.33119392,-0.03795964,29.39955139,-,28.39999962,177.80000305,14.90196037,350,1664.5,-,44.59999847,13.33333397,-10.5,-11.16790581
25-Jan-2022 04:23:19.815,-0.12449314,7.02847528,7.26608944,0.04957551,29.39955139,-,28.39999962,177.80000305,14.90196037,350,1664.5,-,44.59999847,13.33333397,-10.5,-11.16790581
25-Jan-2022 04:23:19.915,-0.1915279,7.66291142,6.35513496,0.03399891,29.39955139,-,28.39999962,177.80000305,14.50980377,350,1664.5,-,44.59999847,13.33333397,-10.5,-11.16790581
25-Jan-2022 04:23:20.016,0.45906842,7.50430298,6.28510809,0.01791757,29.39955139,-,28.39999962,177.80000305,14.50980377,350,1664.5,-,44.59999847,13.33333397,-10.5,-11.16790581
25-Jan-2022 04:23:20.116,-0.70625913,7.36843729,6.60172701,0.03005403,29.39955139,-,28.39999962,177.80000305,14.50980377,350,1664.5,-,44.59999847,13.33333397,-10.5,-11.16790581
25-Jan-2022 04:23:20.216,-0.02693361,8.07469654,5.26462364,0.00160784,29.39955139,-,28.39999962,177.80000305,14.50980377,350,1664.5,-,44.59999847,13.33333397,-10.5,-11.16790581
25-Jan-2022 04:23:20.316,0.06583771,7.91489029,6.32520866,0.05182689,29.39955139,-,28.39999962,177.80000305,14.50980377,350,1664.5,-,44.59999847,13.33333397,-10.5,-11.16790581
25-Jan-2022 04:23:20.416,-0.68291664,7.82211924,6.04749298,0.02927595,29.39955139,-,28.39999962,177.80000305,14.50980377,350,1664.5,-,44.59999847,13.33333397,-10.5,-11.16790581
25-Jan-2022 04:23:20.516,0.24778922,7.70061874,5.22871161,-0.03183568,29.39955139,-,28.39999962,177.80000305,14.50980377,350,1635.5,-,44.59999847,13.33333397,-10.5,-11.16790581
25-Jan-2022 04:23:20.617,-0.21127921,7.7909956,4.83667803,-0.04596835,29.39955139,-,28.39999962,177.80000305,14.50980377,350,1635.5,-,44.59999847,13.33333397,-10.5,-11.16790581
25-Jan-2022 04:23:20.716,-0.15382084,7.74311399,6.38984966,0.04248625,29.39955139,-,28.39999962,177.80000305,14.50980377,350,1635.5,-,44.59999847,13.33333397,-10.5,-11.16790581
25-Jan-2022 04:23:20.817,-0.83314633,7.41452408,4.52005863,-0.09174985,29.39955139,-,28.39999962,177.80000305,14.50980377,350,1635.5,-,44.59999847,13.33333397,-10.5,-11.16790581
25-Jan-2022 04:23:20.916,-0.20050576,7.98850918,5.41066313,0.00273895,29.39955139,-,28.39999962,177.80000305,14.50980377,350,1635.5,-,44.59999847,13.33333397,-10.5,-11.16790581
25-Jan-2022 04:23:21.016,0.44230974,7.60665035,8.95811939,0.21780735,29.39955139,-,28.39999962,177.80000305,14.11764717,350,1635.5,-,44.59999847,12.94117641,-10.5,-11.16790581
25-Jan-2022 04:23:21.116,-0.0389041,6.99136686,6.03731823,-0.03936696,29.39955139,-,28.39999962,177.80000305,14.11764717,350,1635.5,-,44.59999847,12.94117641,-10.5,-11.16790581
25-Jan-2022 04:23:21.215,0.10713592,7.67727661,5.60099411,-0.01220787,29.39955139,-,28.39999962,177.80000305,14.11764717,350,1604.5,-,44.59999847,12.94117641,-10.5,-11.16790581
25-Jan-2022 04:23:21.315,0.75054997,7.7042098,6.144454,0.0264352,29.39955139,-,28.39999962,177.80000305,14.11764717,350,1604.5,-,44.59999847,12.94117641,-10.5,-11.16790581
25-Jan-2022 04:23:21.416,0.25377446,7.71318769,6.18575287,0.02720183,29.39955139,-,28.39999962,177.80000305,14.11764717,350,1604.5,-,44.59999847,12.94117641,-10.5,-11.16790581
25-Jan-2022 04:23:21.516,0.49797252,7.45941305,7.19965315,0.07701272,29.39955139,-,28.39999962,177.80000305,14.11764717,350,1604.5,-,44.59999847,12.94117641,-10.5,-11.16790581
25-Jan-2022 04:23:21.616,0.89299881,7.03924894,5.30532265,-0.07786691,29.39955139,-,28.39999962,177.80000305,14.11764717,350,1604.5,-,44.59999847,12.94117641,-10.5,-11.16790581
25-Jan-2022 04:23:21.718,-3.01297331,1.45261943,6.70168066,-0.21748978,29.39955139,-,28.39999962,177.80000305,14.11764717,350,1604.5,-,44.59999847,12.94117641,-10.5,-11.16790581
25-Jan-2022 04:23:21.816,-3.72102785,0.41118643,7.30200148,-0.14453208,29.39955139,-,28.39999962,177.80000305,14.11764717,350,1604.5,-,44.59999847,12.94117641,-10.5,-11.16790581
25-Jan-2022 04:23:21.916,3.7659173,2.70174026,8.5792532,0.01300198,29.39955139,-,28.39999962,177.80000305,14.11764717,350,1604.5,-,44.59999847,12.94117641,-10.5,-11.16790581
25-Jan-2022 04:23:22.017,7.1368084,1.15694821,10.81115055,0.34478015,29.39955139,-,28.39999962,177.80000305,14.11764717,350,1604.5,-,44.59999847,12.94117641,-10.5,-11.16790581
25-Jan-2022 04:23:22.116,8.08427334,-3.43972135,8.68818474,0.27853507,29.39955139,-,28.39999962,177.80000305,14.11764717,350,1575.5,-,44.59999847,12.94117641,-10.5,-11.16790581
25-Jan-2022 04:23:22.216,-0.35851634,-2.40187955,10.91290092,0.1586377,29.39955139,-,28.39999962,177.80000305,14.11764717,350,1575.5,-,44.59999847,12.94117641,-10.5,-11.16790581
25-Jan-2022 04:23:22.316,4.61761808,-2.23189855,9.79545593,0.14610344,29.39955139,-,28.39999962,177.80000305,14.11764717,350,1575.5,-,44.59999847,12.94117641,-10.5,-11.16790581
25-Jan-2022 04:23:22.417,4.44404602,-2.2181325,7.89753342,-0.02997458,29.39955139,-,28.39999962,177.80000305,14.11764717,350,1575.5,-,44.59999847,12.94117641,-10.5,-11.16790581
25-Jan-2022 04:23:22.516,5.0288043,-2.39050746,8.38114166,0.04470366,29.39955139,-,28.39999962,177.80000305,14.11764717,350,1575.5,-,44.59999847,12.94117641,-10.5,-11.16790581
25-Jan-2022 04:23:22.616,4.0298667,-2.34322429,8.0004797,-0.037117,29.39955139,-,28.39999962,177.80000305,14.11764717,350,1575.5,-,44.59999847,12.94117641,-10.5,-11.16790581
25-Jan-2022 04:23:22.717,4.87737751,-2.41923666,8.56369019,0.05343658,29.39955139,-,28.39999962,177.80000305,14.11764717,350,1575.5,-,44.59999847,12.94117641,-10.5,-11.16790581
25-Jan-2022 04:23:22.816,4.42848444,-1.83627367,7.95858288,-0.0339067,29.39955139,-,28.39999962,177.80000305,13.72549057,350,1575.5,-,44.59999847,12.94117641,-10.5,-11.16790581
25-Jan-2022 04:23:22.921,5.04077435,-2.04934835,6.97041893,-0.07958835,29.39955139,-,28.39999962,177.80000305,13.72549057,350,1575.5,-,44.59999847,12.94117641,-10.5,-11.16790581
25-Jan-2022 04:23:23.017,5.01144743,-2.61136317,8.435606,0.05401379,29.39955139,-,28.39999962,177.80000305,13.72549057,350,1575.5,-,44.59999847,12.94117641,-10.5,-11.16790581
25-Jan-2022 04:23:23.117,4.5715313,-2.65744948,8.66663742,0.05390471,29.39955139,-,28.39999962,177.80000305,13.72549057,350,1575.5,-,44.59999847,12.94117641,-10.5,-11.16790581
25-Jan-2022 04:23:23.221,4.60026073,-2.46352768,8.06212807,-0.00203902,29.39955139,-,28.39999962,177.80000305,13.72549057,350,1528.5,-,44.59999847,12.94117641,-10.5,-11.16790581
25-Jan-2022 04:23:23.316,4.59307861,-2.63231158,8.1309576,0.00803858,29.39955139,-,28.39999962,177.80000305,13.72549057,350,1528.5,-,44.59999847,12.94117641,-10.5,-11.16790581
25-Jan-2022 04:23:23.416,4.57093334,-2.58502817,8.30213642,0.02037674,29.39955139,-,28.39999962,177.80000305,13.72549057,350,1528.5,-,44.59999847,12.94117641,-10.5,-11.16790581
25-Jan-2022 04:23:23.516,3.96043754,-2.47130823,8.37395859,-0.00370514,29.39955139,-,28.39999962,177.80000305,14.11764717,350,1528.5,-,44.59999847,12.94117641,-10.5,-11.16790581
25-Jan-2022 04:23:23.616,4.15435982,-2.58263421,8.564888,0.02443999,29.39955139,-,28.39999962,177.80000305,14.11764717,350,1494.5,-,44.59999847,12.94117641,-10.5,-11.16790581
25-Jan-2022 04:23:23.717,3.83534622,-2.74543262,8.97727203,0.05273503,29.39955139,-,28.39999962,177.80000305,14.11764717,350,1494.5,-,44.59999847,12.94117641,-10.5,-11.16790581
25-Jan-2022 04:23:23.816,4.03345776,-2.64607763,8.58823109,0.02310699,29.39955139,-,28.39999962,177.80000305,14.11764717,350,1494.5,-,44.59999847,12.94117641,-10.5,-11.16790581
25-Jan-2022 04:23:23.917,3.53668237,-2.61974263,8.56069851,0.00022691,29.39955139,-,28.39999962,177.80000305,14.11764717,350,1494.5,-,44.59999847,12.94117641,-10.5,-11.16790581
25-Jan-2022 04:23:24.017,3.99096251,-2.69695234,8.63671112,0.02706224,29.39955139,-,28.39999962,177.80000305,14.50980377,350,1494.5,-,44.59999847,12.94117641,-10.5,-11.16790581
25-Jan-2022 04:23:24.118,3.94906592,-2.41025877,8.2554512,-0.00469965,29.39955139,-,28.39999962,177.80000305,14.50980377,350,1435.5,-,44.59999847,12.94117641,-10.5,-11.16790581
25-Jan-2022 04:23:24.218,3.97719669,-2.44138217,8.62833214,0.01895034,29.39955139,-,28.39999962,177.80000305,14.50980377,350,1435.5,-,44.59999847,12.94117641,-10.5,-11.16790581
25-Jan-2022 04:23:24.316,4.05141354,-2.6418879,8.66723633,0.03076833,29.39955139,-,28.39999962,177.80000305,14.90196037,350,1435.5,-,44.59999847,12.94117641,-10.5,-11.16790581
25-Jan-2022 04:23:24.417,4.67268229,-2.38093138,8.6893816,0.05358642,29.39955139,-,28.39999962,177.80000305,14.90196037,350,1401.5,-,44.59999847,12.94117641,-10.5,-10.0076046
25-Jan-2022 04:23:24.516,4.91328955,-2.37315035,8.25365639,0.02758259,29.39955139,-,28.39999962,177.80000305,14.90196037,350,1401.5,-,44.59999847,12.94117641,21,-10.0076046
25-Jan-2022 04:23:24.617,5.24666786,-2.46053505,7.366642,-0.02556795,25.76044083,-,28.39999962,177.80000305,14.90196037,350,1401.5,-,44.59999847,16.47058868,21,-10.0076046
25-Jan-2022 04:23:24.717,5.34003735,-2.13074803,8.39730072,0.05640787,25.76044083,-,28.39999962,177.80000305,31.37254906,350,1401.5,-,44.59999847,16.47058868,21,-10.0076046
25-Jan-2022 04:23:24.817,4.56973553,-1.72375107,7.10568523,-0.10206741,25.76044083,-,28.39999962,177.80000305,31.37254906,350,1401.5,-,44.59999847,16.47058868,21,-8.41218948
25-Jan-2022 04:23:24.916,4.54818916,-2.14211988,8.15429974,-0.00449389,25.76044083,-,28.39999962,177.80000305,31.37254906,350,1700.5,-,44.59999847,16.47058868,21,-8.41218948
25-Jan-2022 04:23:25.017,4.76365757,-1.8703897,8.10462189,-0.0039174,25.76044083,-,28.39999962,177.80000305,31.37254906,350,1700.5,-,44.59999847,14.90196133,-14.5,-8.41218948
25-Jan-2022 04:23:25.117,4.51108074,-2.20676064,8.32069016,0.00969523,25.76044083,-,28.39999962,177.80000305,31.37254906,350,1700.5,-,44.59999847,14.90196133,-14.5,-8.41218948
25-Jan-2022 04:23:25.217,4.71278381,-2.06730437,9.15084362,0.08920056,13.30707073,-,28.39999962,177.80000305,31.37254906,350,1700.5,-,44.59999847,14.90196133,-14.5,-8.41218948
25-Jan-2022 04:23:25.317,4.46379662,-2.49165821,9.12211418,0.01141165,13.30707073,-,28.39999962,177.80000305,19.2156868,350,1700.5,-,44.59999847,14.90196133,-14.5,-8.41218948
25-Jan-2022 04:23:25.417,4.6637044,-1.94041705,8.38772583,0.01709241,13.30707073,-,28.39999962,177.80000305,19.2156868,350,1700.5,-,44.59999847,14.90196133,-14.5,-8.41218948
25-Jan-2022 04:23:25.516,4.33511448,-2.17025042,8.36797333,0.00481987,13.30707073,-,28.39999962,177.80000305,19.2156868,350,1700.5,-,44.59999847,14.90196133,-14.5,-10.87783051
25-Jan-2022 04:23:25.616,4.776227,-2.05712938,8.0854702,-0.00103289,13.30707073,-,28.39999962,177.80000305,19.2156868,350,1700.5,-,44.59999847,14.90196133,-14.5,-10.87783051
25-Jan-2022 04:23:25.717,4.39137554,-2.09184361,8.1058197,-0.01736403,13.30707073,-,28.39999962,177.80000305,19.2156868,350,1683.5,-,44.59999847,14.90196133,-14.5,-10.87783051
25-Jan-2022 04:23:25.817,4.55537128,-2.11279202,7.89094925,-0.02756464,13.30707073,-,28.39999962,177.80000305,19.2156868,350,1683.5,-,44.59999847,14.90196133,-14.5,-10.87783051
25-Jan-2022 04:23:25.917,4.50329971,-2.3019259,8.59361744,0.03545266,13.30707073,-,28.39999962,177.80000305,19.2156868,350,1683.5,-,44.59999847,14.90196133,-14.5,-10.87783051
25-Jan-2022 04:23:26.016,4.70141172,-2.22890615,8.51939964,0.03658992,13.30707073,-,28.39999962,177.80000305,19.2156868,350,1683.5,-,44.59999847,14.90196133,-10.5,-10.87783051
25-Jan-2022 04:23:26.117,4.6367712,-2.16725802,8.71691418,0.04942542,13.30707073,-,28.39999962,177.80000305,19.2156868,350,1683.5,-,44.59999847,13.33333397,-10.5,-10.87783051
25-Jan-2022 04:23:26.217,4.62599754,-2.02780151,8.80729103,0.05394822,29.39955139,-,28.39999962,177.80000305,19.2156868,350,1683.5,-,44.59999847,13.33333397,-10.5,-10.87783051
25-Jan-2022 04:23:26.317,4.76964331,-2.11997437,8.19799232,0.00968122,29.39955139,-,28.39999962,177.80000305,14.50980377,350,1683.5,-,44.59999847,13.33333397,-10.5,-10.87783051
25-Jan-2022 04:23:26.416,4.33451557,-2.07448649,8.90125847,0.05014461,29.39955139,-,28.39999962,177.80000305,14.50980377,350,1683.5,-,44.59999847,13.33333397,-10.5,-10.87783051
25-Jan-2022 04:23:26.520,5.4076705,-3.76172781,8.071105,0.08098489,29.39955139,-,28.39999962,177.80000305,14.50980377,350,1646,-,44.59999847,13.33333397,-10.5,-11.16790581
25-Jan-2022 04:23:26.617,3.41757584,-2.40367532,9.98937702,0.12276953,29.39955139,-,28.39999962,177.80000305,14.50980377,350,1646,-,44.59999847,13.33333397,-10.5,-11.16790581
25-Jan-2022 04:23:26.717,5.24846268,-2.096632,6.62746334,-0.09312236,29.39955139,-,28.39999962,177.80000305,14.50980377,350,1646,-,44.59999847,13.33333397,-10.5,-11.16790581
25-Jan-2022 04:23:26.817,6.16660023,-3.88262963,6.59394646,0.02079493,29.39955139,-,28.39999962,177.80000305,14.50980377,350,1646,-,44.59999847,13.33333397,-10.5,-11.16790581
25-Jan-2022 04:23:26.916,7.20264626,-3.14165592,8.87552261,0.22738332,29.39955139,-,28.39999962,177.80000305,14.11764717,350,1646,-,44.59999847,13.33333397,-10.5,-11.16790581
25-Jan-2022 04:23:27.025,11.99802589,-0.22085561,11.79991436,0.73456746,29.39955139,-,28.39999962,177.80000305,14.11764717,350,1627,-,44.59999847,13.33333397,-10.5,-11.16790581
25-Jan-2022 04:23:27.117,5.55610466,-0.26694199,9.71166134,0.15986317,29.39955139,-,28.39999962,177.80000305,14.11764717,350,1627,-,44.59999847,13.33333397,-10.5,-11.16790581
25-Jan-2022 04:23:27.217,-0.01017492,1.70459831,5.60159206,-0.26564172,29.39955139,-,28.39999962,177.80000305,14.11764717,350,1627,-,44.59999847,13.33333397,-10.5,-11.16790581
25-Jan-2022 04:23:27.317,-0.56979549,2.76518393,4.25551081,-0.46042043,29.39955139,-,28.39999962,177.80000305,14.11764717,350,1627,-,44.59999847,13.33333397,-10.5,-11.16790581
25-Jan-2022 04:23:27.417,-0.88282394,6.62506962,4.79837227,-0.14229304,29.39955139,-,28.39999962,177.80000305,14.11764717,350,1608,-,44.59999847,13.33333397,-10.5,-11.16790581
25-Jan-2022 04:23:27.516,0.25497153,6.97640371,5.31430054,-0.08664179,29.39955139,-,28.39999962,177.80000305,14.11764717,350,1608,-,44.59999847,12.94117641,-10.5,-11.16790581
25-Jan-2022 04:23:27.616,-2.01702833,6.85430431,6.12530136,-0.02166045,29.39955139,-,28.39999962,177.80000305,13.72549057,350,1608,-,44.59999847,12.94117641,-10.5,-11.16790581
25-Jan-2022 04:23:27.721,0.8672623,8.95093632,4.32074928,0.03602213,29.39955139,-,28.39999962,177.80000305,13.72549057,350,1608,-,44.59999847,12.94117641,-10.5,-10.87783051
25-Jan-2022 04:23:27.816,-1.19585228,8.73427105,3.97420382,0.00474435,29.39955139,-,28.39999962,177.80000305,13.72549057,350,1579,-,44.59999847,12.94117641,-10.5,-10.87783051
25-Jan-2022 04:23:27.917,-0.64161849,8.8342247,5.03299427,0.05748647,29.39955139,-,28.39999962,177.80000305,13.72549057,350,1579,-,44.59999847,16.86274529,21.5,-10.87783051
25-Jan-2022 04:23:28.016,0.83673745,8.86893845,4.55237865,0.03878754,28.14703751,-,28.39999962,177.80000305,34.11764526,350,1579,-,44.59999847,16.86274529,21.5,-10.87783051
25-Jan-2022 04:23:28.117,0.19930872,8.59122276,4.12443352,-0.00933439,28.14703751,-,28.39999962,177.80000305,34.11764526,350,1579,-,44.59999847,16.86274529,21.5,-10.87783051
25-Jan-2022 04:23:28.217,-0.19092937,8.86415005,4.79059172,0.04628509,28.14703751,-,28.39999962,177.80000305,34.11764526,350,1980,-,44.59999847,16.86274529,21.5,-7.10684919
25-Jan-2022 04:23:28.316,-0.23103054,8.90305519,3.56002474,-0.00330156,28.14703751,-,28.39999962,177.80000305,34.11764526,350,1980,-,46.40000153,16.86274529,-13,-7.10684919
25-Jan-2022 04:23:28.417,0.72780603,9.04789829,4.34768343,0.04495484,28.14703751,-,28.39999962,177.80000305,34.11764526,350,1980,-,46.40000153,17.25490189,-13,-7.10684919
25-Jan-2022 04:23:28.516,0.13526657,8.68579102,4.4248929,0.01277101,12.51034164,-,28.39999962,177.80000305,30.58823586,350,1980,-,46.40000153,17.25490189,-13,-7.10684919
25-Jan-2022 04:23:28.616,0.65598309,8.99223423,4.00831985,0.02480787,12.51034164,-,28.39999962,177.80000305,30.58823586,350,2199,-,46.40000153,17.25490189,-13,-8.84730148
25-Jan-2022 04:23:28.718,0.90736341,8.61636162,4.61522388,0.05015117,12.51034164,-,28.39999962,177.80000305,30.58823586,350,2199,-,46.40000153,17.25490189,-9,-8.84730148
25-Jan-2022 04:23:28.817,0.40161008,8.4547596,3.97300673,-0.02785534,12.25553322,-,28.39999962,177.80000305,30.58823586,350,2199,-,46.40000153,15.29411793,-9,-8.84730148
25-Jan-2022 04:23:28.923,-2.2145412,5.96070719,4.30039978,-0.19848877,12.25553322,-,28.39999962,177.80000305,20,350,2199,-,46.40000153,15.29411793,-9,-8.84730148
25-Jan-2022 04:23:29.017,0.2447966,3.66716075,6.53828382,-0.21642548,12.25553322,-,28.39999962,177.80000305,20,350,2156.5,-,46.40000153,15.29411793,-9,-11.02286816
25-Jan-2022 04:23:29.117,4.23635769,4.93782854,5.89846087,-0.08580738,12.25553322,-,28.39999962,177.80000305,20,350,2156.5,-,46.40000153,15.29411793,-8.5,-11.02286816
25-Jan-2022 04:23:29.223,5.02102375,5.88110352,8.824049,0.21501833,29.39955139,-,28.39999962,177.80000305,20,350,2156.5,-,46.40000153,14.11764717,-8.5,-11.02286816
25-Jan-2022 04:23:29.318,3.52710581,6.039114,8.99762154,0.18067056,29.39955139,-,28.39999962,177.80000305,14.90196037,350,2156.5,-,46.40000153,14.11764717,-8.5,-11.02286816
25-Jan-2022 04:23:29.416,4.82770061,2.02540731,9.22146988,0.09993607,29.39955139,-,28.39999962,177.80000305,14.90196037,350,2156.5,-,46.40000153,14.11764717,-8.5,-11.02286816
25-Jan-2022 04:23:29.515,7.10807896,0.85589027,7.71797609,0.09212142,29.39955139,-,28.39999962,177.80000305,14.90196037,350,2156.5,-,46.40000153,14.11764717,-8.5,-11.16790581
25-Jan-2022 04:23:29.617,6.99615526,1.72075844,10.16654015,0.28919023,29.39955139,-,28.39999962,177.80000305,14.90196037,350,2124.5,-,46.40000153,14.11764717,-8.5,-11.16790581
25-Jan-2022 04:23:29.717,4.82470751,0.03531296,8.32188702,-0.00042921,29.39955139,-,28.39999962,177.80000305,14.90196037,350,2124.5,-,46.40000153,14.11764717,-8.5,-11.16790581
25-Jan-2022 04:23:29.817,5.25744057,0.49438137,7.90112448,-0.01226324,29.39955139,-,28.39999962,177.80000305,14.90196037,350,2124.5,-,46.40000153,14.11764717,-8.5,-11.16790581
25-Jan-2022 04:23:29.917,5.1155901,-0.50036663,8.31111336,0.01513809,29.39955139,-,28.39999962,177.80000305,14.90196037,350,2124.5,-,46.40000153,14.11764717,-8.5,-11.16790581
25-Jan-2022 04:23:30.017,5.33405209,-0.94985867,8.48049641,0.04483658,29.39955139,-,28.39999962,177.80000305,14.90196037,350,2124.5,-,46.40000153,14.11764717,-8.5,-11.16790581
25-Jan-2022 04:23:30.117,6.78188372,-2.36776352,7.196661,0.0555132,29.39955139,-,28.39999962,177.80000305,14.90196037,350,2124.5,-,46.40000153,14.11764717,-8.5,-11.16790581
25-Jan-2022 04:23:30.220,5.89067984,-1.92186272,7.51986408,0.01225376,29.39955139,-,28.39999962,177.80000305,14.90196037,350,2124.5,-,46.40000153,14.11764717,-8.5,-11.16790581
25-Jan-2022 04:23:30.316,5.46632576,-2.10381436,7.53482723,-0.00815564,29.39955139,-,28.39999962,177.80000305,14.50980377,350,2124.5,-,46.40000153,14.11764717,-8.5,-11.16790581
25-Jan-2022 04:23:30.417,5.80868196,-1.99787533,8.14831543,0.05919164,29.39955139,-,28.39999962,177.80000305,14.50980377,350,2124.5,-,46.40000153,14.11764717,-8.5,-11.16790581
25-Jan-2022 04:23:30.516,5.38672209,-2.08286595,7.47976255,-0.01770025,29.39955139,-,28.39999962,177.80000305,14.50980377,350,2124.5,-,46.40000153,14.11764717,-8.5,-11.16790581
25-Jan-2022 04:23:30.617,5.55849838,-1.85003984,8.3452301,0.05836755,29.39955139,-,28.39999962,177.80000305,14.50980377,350,2034,-,46.40000153,14.11764717,-8.5,-11.16790581
25-Jan-2022 04:23:30.718,5.38552523,-2.06491017,7.43068409,-0.02212852,29.39955139,-,28.39999962,177.80000305,14.50980377,350,2034,-,46.40000153,14.11764717,-8.5,-11.16790581
25-Jan-2022 04:23:30.818,5.58662939,-2.20077515,8.91682148,0.11482555,29.39955139,-,28.39999962,177.80000305,14.50980377,350,2034,-,46.40000153,14.11764717,-8.5,-11.16790581
25-Jan-2022 04:23:30.917,6.2689476,-2.07927489,8.6798048,0.130822,29.39955139,-,28.39999962,177.80000305,14.90196037,350,2034,-,46.40000153,14.11764717,-8.5,-11.16790581
25-Jan-2022 04:23:31.017,8.4547596,-0.23402315,10.02289391,0.35587353,29.39955139,-,28.39999962,177.80000305,14.90196037,350,2004.5,-,46.40000153,14.11764717,-8.5,-11.16790581
25-Jan-2022 04:23:31.118,9.7882719,-0.05326869,12.4529047,0.63362199,29.39955139,-,28.39999962,177.80000305,14.90196037,350,2004.5,-,46.40000153,14.11764717,-9,-11.16790581
25-Jan-2022 04:23:31.218,5.25624371,2.19299459,8.01903343,0.02162606,29.39955139,-,28.39999962,177.80000305,14.90196037,350,2004.5,-,46.40000153,13.72549057,-9,-11.16790581
25-Jan-2022 04:23:31.316,-0.27292722,3.57438922,3.15063405,-0.49450147,29.39955139,-,28.39999962,177.80000305,14.90196037,350,2004.5,-,46.40000153,13.72549057,-9,-11.16790581
25-Jan-2022 04:23:31.416,-1.2221874,3.0207541,4.39676189,-0.42313266,29.39955139,-,28.39999962,177.80000305,14.90196037,350,1969.5,-,46.40000153,13.72549057,-9,-11.16790581
25-Jan-2022 04:23:31.517,-1.22278595,3.96762013,6.58975649,-0.1870563,29.39955139,-,28.39999962,177.80000305,14.90196037,350,1969.5,-,46.40000153,13.72549057,-9,-11.16790581
25-Jan-2022 04:23:31.617,-0.03351738,8.51640797,8.50264168,0.15316898,29.39955139,-,28.39999962,177.80000305,14.90196037,350,1969.5,-,46.40000153,13.72549057,-9,-11.16790581
25-Jan-2022 04:23:31.718,2.69755077,9.65121078,6.02774239,0.21107799,29.39955139,-,28.39999962,177.80000305,14.90196037,350,1969.5,-,46.40000153,13.72549057,-9,-11.16790581
25-Jan-2022 04:23:31.817,-0.79903042,8.04955864,5.06292057,-0.00822699,29.39955139,-,28.39999962,177.80000305,14.90196037,350,1941,-,46.40000153,13.72549057,-9,-11.16790581
25-Jan-2022 04:23:31.919,1.58848453,8.62593746,5.0311985,0.04973692,29.39955139,-,28.39999962,177.80000305,14.90196037,350,1941,-,46.40000153,13.72549057,-9,-11.16790581
25-Jan-2022 04:23:32.016,0.11072707,7.9801302,5.79910564,0.02463824,29.39955139,-,28.39999962,177.80000305,14.90196037,350,1941,-,46.40000153,13.72549057,-9,-11.16790581
25-Jan-2022 04:23:32.117,0.56740141,8.18183327,4.88096905,-0.00811386,29.39955139,-,28.39999962,177.80000305,14.90196037,350,1941,-,46.40000153,13.72549057,-9,-11.16790581
25-Jan-2022 04:23:32.222,1.00252891,8.3649807,5.37116051,0.03748745,29.39955139,-,28.39999962,177.80000305,14.90196037,350,1908,-,46.40000153,13.72549057,-9,-11.16790581